Flag for U.S.A. Weather past 2 weeks in Springfield, Illinois, U.S.A.

Now
23 °F

Light snow. Ice fog.


Feels Like: 18 °F
Forecast: 20 / 30 °F
Wind: 3 mph from Northeast

Location: Capital Airport

Current Time: Mar 1, 2015 at 7:32:57 AM

Latest Report: Mar 1, 2015 at 6:52 AM


Visibility: 2 mi

Pressure: 30.39 "Hg

Humidity: 88%

Dew point: 20 °F

Location of SpringfieldLocation

Historic Weather in Springfield — Graph

°F

Springfield temperature yesterday

Maximum temperature yesterday: 25 °F (at 12:52 PM)
Minimum temperature yesterday: 5 °F (at 12:52 AM)
Average temperature yesterday: 17 °F

Past Weeks' High & Low Weather Summary

 TemperatureHumidityPressure
High37 °F (Feb 21, 1:52 PM)92% (Feb 28, 11:00 PM)30.81 "Hg (Feb 28, 11:00 PM)
Low-11 °F (Feb 27, 5:52 AM)29% (Feb 14, 10:52 AM)29.89 "Hg (Feb 24, 2:52 PM)
Average16 °F65%30.30 "Hg
* Reported Feb 14 5:52 AM — Mar 1 5:52 AM, Springfield, Weather by CustomWeather, © 2015

Note: Actual official high and low records may vary slightly from our data, if they occured in-between our weather recording intervals... More about our weather records

Advertising

Springfield weather history for previous 24 hours

 ConditionsComfort  
Time TempWeatherWind HumidityBarometerVisibility
5:52 AM
Sun, Mar 1
23 °FLight snow. Ice fog.No wind88%30.40 "Hg1 mi
5:01 AM23 °FLight snow. Ice fog.3 mph88%30.37 "Hg1 mi
4:52 AM23 °FLight snow. Ice fog.3 mph88%30.40 "Hg1 mi
3:52 AM23 °FLight snow. Ice fog.3 mph88%30.38 "Hg1 mi
3:02 AM23 °FLight snow. Ice fog.3 mph85%30.37 "Hg3 mi
2:52 AM23 °FLight snow. Ice fog.5 mph88%30.40 "Hg1 mi
1:59 AM23 °FLight snow. Ice fog.No wind88%30.40 "Hg1 mi
12:59 AM23 °FLight snow. Ice fog.3 mph88%30.41 "Hg2 mi
11:52 PM
Sat, Feb 28
22 °FLight snow. Ice fog.3 mph92%30.45 "Hg1 mi
11:00 PM22 °FLight snow. Ice fog.5 mph92%30.45 "Hg1 mi
10:04 PM22 °FLight snow. Ice fog.5 mph89%30.46 "Hg1 mi
9:02 PM22 °FLight snow. Ice fog.6 mph89%30.47 "Hg1 mi
7:52 PM22 °FLight snow. Ice fog.7 mph89%30.52 "Hg1 mi
6:52 PM22 °FLight snow. Ice fog.10 mph85%30.54 "Hg1 mi
5:52 PM22 °FLight snow. Ice fog.10 mph85%30.53 "Hg1 mi
4:52 PM23 °FLight snow. Ice fog.7 mph81%30.54 "Hg1 mi
4:03 PM23 °FLight snow. Mostly cloudy.8 mph78%30.52 "Hg1 mi
3:52 PM23 °FLight snow. Mostly cloudy.9 mph74%30.55 "Hg2 mi
2:54 PM24 °FLight snow. Mostly cloudy.9 mph62%30.53 "Hg4 mi
1:52 PM25 °FScattered clouds.10 mph53%30.56 "Hg10 mi
12:52 PM25 °FSunny.10 mph53%30.61 "Hg10 mi
11:52 AM24 °FSunny.9 mph52%30.65 "Hg10 mi
10:52 AM21 °FSunny.7 mph57%30.67 "Hg10 mi
9:52 AM18 °FPassing clouds.7 mph57%30.69 "Hg10 mi
8:52 AM14 °FOvercast.6 mph64%30.72 "Hg10 mi
7:52 AM10 °FMostly cloudy.6 mph69%30.71 "Hg10 mi
Weather by CustomWeather, © 2015

See weather overviewHow to use our weather pages